Location: Oso Ridge
(35.0450°N, 108.0864°W)
Time: 17:33:42
(UTC-07:00)

Amateur Radio Satellites - All Passes

Search period start: 02 March 2015 17:03
Search period end: 03 March 2015 17:03
Location: Oso Ridge, 35.0450°N, 108.0864°W

Satellite Date Start Highest point End Downlink Frequencies (MHz)
Time Altitude Azimuth
VERMONT LUNAR 02 Mar 17:06:54 17:10:19 55° 153° (SSE) 17:13:46 437.305
PHONESAT 2.4 02 Mar 17:10:12 17:13:21 28° 147° (SSE) 17:16:33 2401.200-2431.200
AO-7 02 Mar 17:14:13 17:20:08 20° 268° (W) 17:25:35 29.400- 29.500
BEESAT 3 02 Mar 17:19:29 17:23:32 70° 300° (WNW) 17:27:40 437.485
M-CUBED/EXP-1 PRIME 02 Mar 17:21:54 17:25:57 40° 290° (WNW) 17:30:13 437.505
AUBIESAT-1 02 Mar 17:23:56 17:28:01 42° 290° (WNW) 17:32:21 437.475
AIST 2 02 Mar 17:41:44 17:45:54 60° 117° (ESE) 17:50:08 435.215
BEESAT 2 02 Mar 17:45:08 17:49:03 42° 303° (WNW) 17:53:00 435.950
MOZHAYETS 4 02 Mar 17:46:39 17:50:43 30° 288° (WNW) 17:54:42
CUBESAT XI-V 02 Mar 18:08:11 18:12:20 31° 96° (E) 18:16:30 437.345
STRAND 1 02 Mar 18:12:42 18:16:26 21° 93° (E) 18:20:19 437.568
Cubesat XI-IV 02 Mar 18:19:08 18:24:16 45° 261° (W) 18:29:25 437.490
CUTE-I 02 Mar 18:28:21 18:33:19 37° 262° (W) 18:38:16 437.470
HO-68 02 Mar 18:39:54 18:44:05 17° 60° (ENE) 18:48:37 435.675
O/OREOS (USA 219) 02 Mar 18:40:29 18:44:14 25° 62° (ENE) 18:48:01 437.305
AIST 1 02 Mar 18:42:42 18:47:06 67° 265° (W) 18:51:26
VERMONT LUNAR 02 Mar 18:45:00 18:48:19 40° 348° (NNW) 18:51:39 437.305
PHONESAT 2.4 02 Mar 18:48:04 18:51:41 62° 341° (NNW) 18:55:18 2401.200-2431.200
PRISM 02 Mar 18:53:34 18:57:48 74° 284° (WNW) 19:02:00 437.425
BRITE-PL 02 Mar 18:58:58 19:03:12 23° 70° (ENE) 19:07:28 437.365/2234.400
GOMX 1 02 Mar 19:05:01 19:08:12 17° 69° (ENE) 19:11:32 467.674
CANX-2 02 Mar 19:08:11 19:09:50 12° 68° (ENE) 19:11:43 2200.000
AIST 2 02 Mar 19:22:47 19:24:57 13° 314° (NW) 19:26:58 435.215
CUTE 1.7 + AOD 2 02 Mar 19:25:32 19:28:20 18° 70° (ENE) 19:31:18 437.475
DOVE 4 02 Mar 19:38:56 19:42:58 24° 71° (ENE) 19:46:59 437.250
CUBESAT XI-V 02 Mar 19:45:56 19:49:38 23° 290° (WNW) 19:53:11 437.345
CINEMA 3 02 Mar 19:48:26 19:50:58 15° 69° (ENE) 19:53:40 145.822/145.860
STRAND 1 02 Mar 19:51:01 19:55:48 39° 289° (WNW) 20:00:31 437.568
Oscar 11 02 Mar 20:02:40 20:04:46 14° 68° (ENE) 20:07:05 145.826/435.025
AAUSAT CUBESAT 2 02 Mar 20:08:18 20:12:00 33° 73° (ENE) 20:15:46 437.432
CUBEBUG 2 02 Mar 20:09:35 20:11:26 13° 68° (ENE) 20:13:31 437.445
COMPASS 1 02 Mar 20:10:42 20:14:36 42° 74° (ENE) 20:18:32 437.405
O/OREOS (USA 219) 02 Mar 20:19:45 20:23:38 27° 257° (WSW) 20:27:24 437.305
VERMONT LUNAR 02 Mar 20:23:29 20:26:41 33° 5° (N) 20:29:53 437.305
HO-68 02 Mar 20:23:57 20:31:06 81° 256° (WSW) 20:38:18 435.675
DX 1 02 Mar 20:27:09 20:29:07 13° 67° (ENE) 20:31:19 434.975-435.025
PHONESAT 2.4 02 Mar 20:27:10 20:30:30 33° 358° (N) 20:33:51 2401.200-2431.200
PCSat 02 Mar 20:31:04 20:36:29 83° 116° (ESE) 20:41:56 145.827
BRITE-PL 02 Mar 20:36:02 20:41:27 44° 262° (W) 20:46:41 437.365/2234.400
SEEDS 02 Mar 20:37:53 20:42:03 70° 259° (W) 20:46:13 437.485
GOMX 1 02 Mar 20:40:38 20:45:58 56° 260° (W) 20:51:06 467.674
CANX-2 02 Mar 20:41:21 20:45:26 46° 262° (W) 20:49:29 2200.000
FUNcube-1 02 Mar 20:46:16 20:49:32 21° 71° (ENE) 20:52:51 145.935
ZACube-1 02 Mar 20:47:26 20:50:48 22° 71° (ENE) 20:54:12 437.345
HUMSAT D 02 Mar 20:52:04 20:53:34 12° 68° (ENE) 20:55:18 437.325/437.525
UKube-1 02 Mar 20:54:54 20:58:27 26° 71° (ENE) 21:02:07 .
CUTE 1.7 + AOD 2 02 Mar 21:00:20 21:04:06 30° 264° (W) 21:07:49 437.475
UWE-3 02 Mar 21:05:48 21:10:04 45° 75° (ENE) 21:14:15 435.000/436.395/437.385
GONETS M04 02 Mar 21:08:03 21:15:44 38° 88° (E) 21:23:35
DELFI C3 02 Mar 21:15:15 21:19:16 80° 77° (ENE) 21:23:19 145.870
DOVE 4 02 Mar 21:15:51 21:20:35 34° 263° (W) 21:25:05 437.250
CINEMA 3 02 Mar 21:23:10 21:27:52 49° 261° (W) 21:32:23 145.822/145.860
Oscar 11 02 Mar 21:36:31 21:40:38 43° 262° (W) 21:44:44 145.826/435.025
CUBEBUG 2 02 Mar 21:43:21 21:47:49 52° 260° (W) 21:52:08 437.445
AAUSAT CUBESAT 2 02 Mar 21:45:13 21:47:48 16° 268° (W) 21:50:13 437.432
ANTELSAT 02 Mar 21:48:38 21:50:56 14° 92° (E) 21:53:26 437.575/2403.000
COMPASS 1 02 Mar 21:48:42 21:50:34 12° 269° (W) 21:52:14 437.405
RS-15 02 Mar 21:50:16 21:58:53 29° 106° (ESE) 22:07:55 29.354- 29.394
DX 1 02 Mar 22:00:45 22:05:00 49° 260° (W) 22:09:17 434.975-435.025
VERMONT LUNAR 02 Mar 22:01:24 22:04:53 76° 21° (NNE) 22:08:21 437.305
AISAT 02 Mar 22:04:21 22:08:49 68° 75° (ENE) 22:13:18 437.250
PHONESAT 2.4 02 Mar 22:05:50 22:09:23 49° 15° (NNE) 22:12:55 2401.200-2431.200
CUBEBUG 1 02 Mar 22:08:09 22:11:56 29° 72° (ENE) 22:15:48 437.445
POLYITAN 1 02 Mar 22:08:23 22:10:05 12° 91° (E) 22:12:02 437.675
POPSAT HIP 1 02 Mar 22:08:53 22:10:33 12° 91° (E) 22:12:27 437.405
VELOX 1 02 Mar 22:13:47 22:18:16 84° 77° (ENE) 22:22:47 145.980
PCSat 02 Mar 22:17:50 22:20:40 14° 314° (NW) 22:23:17 145.827
HO-68 02 Mar 22:18:24 22:20:01 10° 273° (W) 22:20:57 435.675
50 SAT 02 Mar 22:20:29 22:24:29 80° 258° (WSW) 22:28:27 437.505
FUNcube-1 02 Mar 22:21:57 22:25:46 28° 264° (W) 22:29:26 145.935
ZACube-1 02 Mar 22:23:19 22:27:05 26° 264° (W) 22:30:42 437.345
HUMSAT D 02 Mar 22:24:56 22:29:01 48° 261° (W) 22:33:04 437.325/437.525
ESTCUBE 1 02 Mar 22:29:55 22:34:20 57° 75° (ENE) 22:38:49 437.505/2401.250
NANOSAT C BR1 02 Mar 22:30:37 22:33:58 23° 95° (E) 22:37:22 145.865
UKube-1 02 Mar 22:31:04 22:34:36 23° 265° (W) 22:38:01 .
CUSAT 1 02 Mar 22:33:07 22:35:30 13° 94° (E) 22:38:04 437.405
SPROUT 02 Mar 22:41:09 22:43:39 16° 69° (ENE) 22:46:21 437.525
TISAT 1 02 Mar 22:44:36 22:47:02 15° 69° (ENE) 22:49:39 437.305
UWE-3 02 Mar 22:44:39 22:46:53 13° 269° (W) 22:48:50 435.000/436.395/437.385
UNISAT 6 02 Mar 22:44:57 22:49:15 70° 101° (ESE) 22:53:35 437.425
QB50P1 02 Mar 23:02:51 23:07:02 59° 101° (E) 23:11:11 145.935-145.965
GONETS M04 02 Mar 23:04:28 23:12:32 40° 285° (WNW) 23:20:31
QB50P2 02 Mar 23:06:43 23:10:57 68° 101° (E) 23:15:08 145.880/145.840
TIGRISAT 02 Mar 23:10:03 23:14:16 59° 285° (WNW) 23:18:32 435.000
BUGSAT 1 02 Mar 23:12:28 23:16:33 55° 100° (E) 23:20:33 437.445
DUCHIFAT 1 02 Mar 23:21:40 23:25:54 81° 284° (WNW) 23:30:05 145.980
ANTELSAT 02 Mar 23:23:55 23:27:56 39° 286° (WNW) 23:31:59 437.575/2403.000
VERMONT LUNAR 02 Mar 23:39:56 23:42:33 20° 215° (SW) 23:45:07 437.305
POLYITAN 1 02 Mar 23:42:18 23:46:19 43° 286° (WNW) 23:50:18 437.675
POPSAT HIP 1 02 Mar 23:42:43 23:46:45 43° 286° (WNW) 23:50:43 437.405
DANDE 02 Mar 23:42:45 23:49:44 52° 97° (E) 23:55:08 436.750
PHONESAT 2.4 02 Mar 23:44:24 23:47:50 40° 210° (SSW) 23:51:13 2401.200-2431.200
CUBEBUG 1 02 Mar 23:44:53 23:48:20 21° 266° (W) 23:51:42 437.445
RS-15 02 Mar 23:59:42 00:10:33 66° 304° (NW) 00:21:29 29.354- 29.394
SWISSCUBE 03 Mar 00:02:45 00:06:10 20° 69° (ENE) 00:09:43 437.505
NANOSAT C BR1 03 Mar 00:06:22 00:09:46 23° 289° (WNW) 00:13:05 145.865
ESTCUBE 1 03 Mar 00:10:24 00:11:40 11° 271° (W) 00:12:37 437.505/2401.250
BEESAT 03 Mar 00:11:04 00:14:43 23° 69° (ENE) 00:18:30 436.000
CUSAT 1 03 Mar 00:11:43 00:18:26 71° 278° (W) 00:23:28 437.405
SPROUT 03 Mar 00:15:24 00:19:29 39° 262° (W) 00:23:33 437.525
TISAT 1 03 Mar 00:18:33 00:22:34 38° 262° (W) 00:26:35 437.305
SO-50 03 Mar 00:33:08 00:36:35 22° 111° (ESE) 00:40:15 436.795
ITUPSAT 1 03 Mar 00:37:39 00:42:08 43° 73° (ENE) 00:46:41 437.325
BUGSAT 1 03 Mar 00:50:57 00:51:36 10° 293° (WNW) 00:52:01 437.445
DANDE 03 Mar 01:28:04 01:33:05 20° 285° (WNW) 01:37:04 436.750
Oscar 19 03 Mar 01:30:49 01:35:53 60° 100° (E) 01:40:58 437.125/150
ITAMSAT 1 03 Mar 01:31:04 01:34:28 18° 92° (E) 01:38:04 435.822/435.867
SWISSCUBE 03 Mar 01:39:25 01:43:48 36° 262° (W) 01:48:12 437.505
BEESAT 3 03 Mar 01:42:10 01:45:37 26° 53° (NE) 01:49:05 437.485
BEESAT 03 Mar 01:48:10 01:52:26 31° 263° (W) 01:56:39 436.000
KKS-1 03 Mar 01:54:07 01:58:28 53° 74° (ENE) 02:02:51 437.445
STARS 03 Mar 02:00:03 02:04:09 38° 73° (ENE) 02:08:16 437.465
AIST 2 03 Mar 02:07:39 02:10:24 17° 48° (NE) 02:13:14 435.215
BEESAT 2 03 Mar 02:07:43 02:11:39 41° 57° (ENE) 02:15:32 435.950
SO-50 03 Mar 02:12:45 02:16:57 34° 306° (NW) 02:21:15 436.795
ITUPSAT 1 03 Mar 02:17:11 02:20:17 16° 268° (W) 02:23:11 437.325
RS-15 03 Mar 02:18:15 02:25:46 19° 332° (NNW) 02:33:01 29.354- 29.394
JUGNU 03 Mar 02:18:36 02:22:04 16° 172° (S) 02:25:36 437.505
SRMSAT 03 Mar 02:23:55 02:24:19 10° 165° (SSE) 02:24:53 437.500
Gurwin Techsat 1B 03 Mar 02:43:12 02:48:32 74° 101° (ESE) 02:53:51 435.225
JAS-2 03 Mar 03:08:15 03:12:27 16° 88° (E) 03:17:15 435.910
YUBILEINY 03 Mar 03:08:54 03:17:36 60° 79° (E) 03:26:19 435.215
ITAMSAT 1 03 Mar 03:09:16 03:14:15 45° 288° (WNW) 03:19:10 435.822/435.867
MOZHAYETS 4 03 Mar 03:09:56 03:12:25 15° 68° (ENE) 03:15:08
Oscar 19 03 Mar 03:12:01 03:14:48 14° 294° (WNW) 03:17:20 437.125/150
BEESAT 3 03 Mar 03:20:18 03:23:38 23° 248° (WSW) 03:26:50 437.485
AO-7 03 Mar 03:24:18 03:31:12 30° 96° (E) 03:38:19 29.400- 29.500
KKS-1 03 Mar 03:33:47 03:35:30 12° 270° (W) 03:36:55 437.445
STARS 03 Mar 03:38:00 03:40:49 16° 268° (W) 03:43:25 437.465
AIST 2 03 Mar 03:45:13 03:49:15 42° 245° (WSW) 03:53:12 435.215
BEESAT 2 03 Mar 03:47:12 03:49:30 14° 250° (WSW) 03:51:36 435.950
HORYU 2 03 Mar 03:51:51 03:56:19 79° 284° (WNW) 04:00:46 437.375
JUGNU 03 Mar 04:06:30 04:10:24 18° 182° (S) 04:14:18 437.505
M-CUBED/EXP-1 PRIME 03 Mar 04:08:57 04:12:04 39° 257° (WSW) 04:15:15 437.505
SRMSAT 03 Mar 04:09:05 04:12:48 17° 174° (S) 04:16:33 437.500
AUBIESAT-1 03 Mar 04:10:30 04:13:38 43° 256° (WSW) 04:16:53 437.475
Gurwin Techsat 1B 03 Mar 04:25:39 04:27:58 12° 296° (WNW) 04:29:58 435.225
RS-15 03 Mar 04:40:41 04:44:39 12° 8° (N) 04:48:52 29.354- 29.394
MOZHAYETS 4 03 Mar 04:44:58 04:49:20 45° 262° (W) 04:53:43
JAS-2 03 Mar 04:50:40 04:58:16 86° 284° (WNW) 05:06:10 435.910
YUBILEINY 03 Mar 05:06:57 05:13:54 25° 275° (W) 05:20:28 435.215
CUBESAT XI-V 03 Mar 05:09:00 05:12:29 22° 70° (ENE) 05:16:08 437.345
CUTE-I 03 Mar 05:11:31 05:13:01 11° 89° (E) 05:14:54 437.470
AO-7 03 Mar 05:16:21 05:24:21 53° 292° (WNW) 05:32:15 29.400- 29.500
PCSat 03 Mar 05:22:36 05:27:27 33° 56° (NE) 05:32:20 145.827
STRAND 1 03 Mar 05:25:38 05:29:28 22° 68° (ENE) 05:33:29 437.568
PRISM 03 Mar 05:40:45 05:44:44 50° 74° (ENE) 05:48:47 437.425
JUGNU 03 Mar 05:56:05 05:58:44 13° 192° (SSW) 06:01:17 437.505
SRMSAT 03 Mar 05:57:24 06:01:18 18° 184° (S) 06:05:09 437.500
JAS-2 03 Mar 06:38:03 06:42:31 16° 298° (WNW) 06:46:41 435.910
Cubesat XI-IV 03 Mar 06:39:31 06:44:54 86° 287° (WNW) 06:50:16 437.490
CUBESAT XI-V 03 Mar 06:45:34 06:49:47 32° 264° (W) 06:53:58 437.345
CUTE-I 03 Mar 06:48:22 06:53:44 72° 285° (WNW) 06:59:02 437.470
RS-15 03 Mar 06:52:50 07:02:28 31° 41° (NE) 07:12:44 29.354- 29.394
STRAND 1 03 Mar 07:03:43 07:08:28 37° 262° (W) 07:13:14 437.568
PCSat 03 Mar 07:06:07 07:10:48 29° 251° (WSW) 07:15:21 145.827
ISS 03 Mar 07:06:40 07:06:53 10° 127° (SE) 07:07:17 145.825
AIST 1 03 Mar 07:08:32 07:12:52 85° 96° (E) 07:17:16
PRISM 03 Mar 07:19:49 07:20:37 10° 270° (W) 07:21:08 437.425
GONETS M04 03 Mar 07:23:51 07:28:06 15° 63° (ENE) 07:33:02
SRMSAT 03 Mar 07:47:35 07:49:46 12° 193° (SSW) 07:51:50 437.500
HO-68 03 Mar 07:56:22 08:01:43 23° 93° (E) 08:07:20 435.675
SEEDS 03 Mar 08:26:12 08:29:37 24° 95° (E) 08:33:06 437.485
CANX-2 03 Mar 08:30:02 08:33:57 36° 97° (E) 08:37:54 2200.000
ISS 03 Mar 08:39:49 08:42:59 57° 319° (NW) 08:46:10 145.825
BRITE-PL 03 Mar 08:45:01 08:49:31 86° 102° (ESE) 08:53:43 437.365/2234.400
GOMX 1 03 Mar 08:46:40 08:50:55 55° 99° (E) 08:54:59 467.674
CUTE 1.7 + AOD 2 03 Mar 08:48:20 08:52:31 55° 100° (E) 08:56:42 437.475
O/OREOS (USA 219) 03 Mar 08:48:47 08:53:10 51° 106° (ESE) 08:57:38 437.305
DELFI C3 03 Mar 09:00:01 09:02:07 14° 92° (E) 09:04:25 145.870
UWE-3 03 Mar 09:01:47 09:02:31 11° 90° (E) 09:03:31 435.000/436.395/437.385
RS-15 03 Mar 09:04:39 09:16:12 78° 244° (WSW) 09:28:12 29.354- 29.394
SO-50 03 Mar 09:08:32 09:10:19 12° 42° (NE) 09:12:19 436.795
GONETS M04 03 Mar 09:17:39 09:26:28 87° 84° (E) 09:35:18
DOVE 4 03 Mar 09:18:24 09:22:39 89° 100° (E) 09:26:47 437.250
CINEMA 3 03 Mar 09:21:40 09:25:41 46° 99° (E) 09:29:41 145.822/145.860
NANOSAT C BR1 03 Mar 09:21:50 09:23:39 13° 68° (ENE) 09:25:41 145.865
Oscar 11 03 Mar 09:27:01 09:31:07 41° 98° (E) 09:35:13 145.826/435.025
AAUSAT CUBESAT 2 03 Mar 09:29:45 09:33:57 79° 283° (WNW) 09:38:08 437.432
COMPASS 1 03 Mar 09:32:54 09:37:04 61° 284° (WNW) 09:41:13 437.405
CUBEBUG 2 03 Mar 09:37:59 09:41:52 38° 98° (E) 09:45:46 437.445
UNISAT 6 03 Mar 09:41:00 09:45:08 41° 74° (ENE) 09:49:15 437.425
HO-68 03 Mar 09:42:51 09:49:53 58° 289° (WNW) 09:56:52 435.675
DX 1 03 Mar 09:52:34 09:56:33 35° 98° (E) 10:00:33 434.975-435.025
QB50P1 03 Mar 09:52:49 09:56:30 29° 72° (ENE) 10:00:16 145.935-145.965
QB50P2 03 Mar 09:56:45 10:00:35 33° 72° (ENE) 10:04:28 145.880/145.840
BUGSAT 1 03 Mar 09:59:45 10:03:17 26° 71° (ENE) 10:06:52 437.445
AISAT 03 Mar 09:59:56 10:02:41 17° 92° (E) 10:05:36 437.250
SEEDS 03 Mar 10:01:58 10:05:22 23° 289° (WNW) 10:08:40 437.485
50 SAT 03 Mar 10:03:28 10:05:53 16° 93° (E) 10:08:26 437.505
TIGRISAT 03 Mar 10:05:27 10:09:52 80° 77° (ENE) 10:14:13 435.000
CANX-2 03 Mar 10:06:56 10:09:38 16° 290° (WNW) 10:12:11 2200.000
VELOX 1 03 Mar 10:08:43 10:11:59 20° 94° (E) 10:15:20 145.980
DUCHIFAT 1 03 Mar 10:10:55 10:15:01 48° 75° (ENE) 10:19:09 145.980
HUMSAT D 03 Mar 10:12:39 10:16:20 32° 97° (E) 10:20:04 437.325/437.525
FUNcube-1 03 Mar 10:13:01 10:17:09 68° 101° (E) 10:21:19 145.935
ZACube-1 03 Mar 10:14:31 10:18:40 73° 101° (E) 10:22:51 437.345
ANTELSAT 03 Mar 10:19:28 10:23:53 68° 259° (W) 10:28:13 437.575/2403.000
UKube-1 03 Mar 10:20:58 10:25:19 75° 101° (E) 10:29:39 .
CUTE 1.7 + AOD 2 03 Mar 10:26:46 10:28:02 11° 292° (WNW) 10:29:04 437.475
ESTCUBE 1 03 Mar 10:27:21 10:30:02 16° 92° (E) 10:32:54 437.505/2401.250
GOMX 1 03 Mar 10:27:45 10:28:35 10° 294° (WNW) 10:29:10 467.674
O/OREOS (USA 219) 03 Mar 10:30:28 10:32:59 14° 303° (WNW) 10:35:20 437.305
DANDE 03 Mar 10:31:25 10:32:01 11° 73° (ENE) 10:32:46 436.750
POLYITAN 1 03 Mar 10:31:46 10:36:04 90° 229° (SW) 10:40:23 437.675
POPSAT HIP 1 03 Mar 10:31:55 10:36:13 89° 84° (E) 10:40:32 437.405
DELFI C3 03 Mar 10:33:44 10:37:31 36° 286° (WNW) 10:41:15 145.870
UWE-3 03 Mar 10:35:25 10:39:26 48° 285° (WNW) 10:43:27 435.000/436.395/437.385
SO-50 03 Mar 10:46:42 10:51:40 88° 56° (NE) 10:56:34 436.795
NANOSAT C BR1 03 Mar 10:55:02 10:59:10 47° 261° (W) 11:03:19 145.865
CUSAT 1 03 Mar 10:55:10 10:57:39 43° 79° (E) 11:00:20 437.405
CINEMA 3 03 Mar 11:00:59 11:02:33 12° 292° (WNW) 11:03:54 145.822/145.860
Oscar 11 03 Mar 11:04:28 11:07:00 15° 291° (WNW) 11:09:21 145.826/435.025
CUBEBUG 2 03 Mar 11:16:00 11:18:18 14° 291° (WNW) 11:20:26 437.445
GONETS M04 03 Mar 11:17:23 11:22:22 16° 279° (W) 11:26:43
UNISAT 6 03 Mar 11:19:40 11:22:10 14° 268° (W) 11:24:25 437.425
RS-15 03 Mar 11:21:01 11:27:22 15° 258° (WSW) 11:32:40 29.354- 29.394
QB50P1 03 Mar 11:29:18 11:32:27 19° 266° (W) 11:35:29 145.935-145.965
DX 1 03 Mar 11:29:37 11:32:34 17° 291° (WNW) 11:35:22 434.975-435.025
QB50P2 03 Mar 11:33:44 11:36:37 17° 267° (W) 11:39:21 145.880/145.840
BUGSAT 1 03 Mar 11:35:22 11:38:45 22° 266° (W) 11:42:02 437.445
AISAT 03 Mar 11:35:23 11:39:29 36° 288° (WNW) 11:43:30 437.250
CUBEBUG 1 03 Mar 11:35:58 11:40:24 89° 296° (WNW) 11:44:47 437.445
50 SAT 03 Mar 11:37:30 11:40:59 29° 287° (WNW) 11:44:24 437.505
VELOX 1 03 Mar 11:44:43 11:48:37 30° 288° (WNW) 11:52:25 145.980
HUMSAT D 03 Mar 11:49:14 11:51:55 17° 290° (WNW) 11:54:27 437.325/437.525
DUCHIFAT 1 03 Mar 11:49:31 11:51:12 12° 270° (W) 11:52:36 145.980
ESTCUBE 1 03 Mar 12:02:51 12:07:09 40° 287° (WNW) 12:11:22 437.505/2401.250
SPROUT 03 Mar 12:05:17 12:09:24 44° 99° (E) 12:13:30 437.525
TISAT 1 03 Mar 12:06:31 12:10:29 40° 98° (E) 12:14:27 437.305
ITUPSAT 1 03 Mar 12:43:04 12:45:35 15° 91° (E) 12:48:21 437.325
Oscar 19 03 Mar 12:44:24 12:49:27 63° 75° (ENE) 12:54:33 437.125/150
ITAMSAT 1 03 Mar 12:46:00 12:49:45 21° 68° (ENE) 12:53:40 435.822/435.867
SWISSCUBE 03 Mar 13:42:36 13:47:27 76° 103° (ESE) 13:52:14 437.505
SPROUT 03 Mar 13:42:57 13:45:09 13° 292° (WNW) 13:47:09 437.525
TISAT 1 03 Mar 13:43:39 13:46:00 14° 292° (WNW) 13:48:10 437.305
KKS-1 03 Mar 13:50:27 13:52:25 13° 91° (E) 13:54:38 437.445
BEESAT 03 Mar 13:51:04 13:55:54 85° 103° (ESE) 14:00:42 436.000
Gurwin Techsat 1B 03 Mar 14:00:58 14:06:17 84° 78° (ENE) 14:11:38 435.225
YUBILEINY 03 Mar 14:16:26 14:18:15 11° 79° (E) 14:20:56 435.215
ITUPSAT 1 03 Mar 14:19:10 14:23:50 49° 286° (WNW) 14:28:26 437.325
AO-7 03 Mar 14:20:00 14:27:01 33° 63° (ENE) 14:34:12 29.400- 29.500
ITAMSAT 1 03 Mar 14:24:04 14:29:00 41° 262° (W) 14:33:56 435.822/435.867
Oscar 19 03 Mar 14:27:02 14:29:19 12° 270° (W) 14:31:17 437.125/150
HORYU 2 03 Mar 14:46:56 14:51:18 63° 75° (ENE) 14:55:42 437.375
JAS-2 03 Mar 15:01:12 15:05:37 26° 66° (ENE) 15:10:33 435.910
ISS 03 Mar 15:10:05 15:13:03 33° 36° (NE) 15:16:03 145.825
SWISSCUBE 03 Mar 15:23:56 15:24:45 10° 295° (WNW) 15:25:15 437.505
KKS-1 03 Mar 15:25:08 15:29:23 45° 286° (WNW) 15:33:35 437.445
STARS 03 Mar 15:29:12 15:33:34 65° 285° (WNW) 15:37:53 437.465
M-CUBED/EXP-1 PRIME 03 Mar 15:53:14 15:56:17 19° 99° (E) 15:59:37 437.505
AUBIESAT-1 03 Mar 15:54:34 15:57:25 17° 98° (E) 16:00:32 437.475
BEESAT 2 03 Mar 16:00:18 16:02:58 17° 111° (ESE) 16:05:48 435.950
YUBILEINY 03 Mar 16:05:10 16:13:51 77° 94° (E) 16:22:38 435.215
AO-7 03 Mar 16:11:25 16:19:31 52° 259° (W) 16:27:34 29.400- 29.500
VERMONT LUNAR 03 Mar 16:21:34 16:24:51 40° 150° (SSE) 16:28:10 437.305
Cubesat XI-IV 03 Mar 16:21:51 16:24:04 13° 64° (ENE) 16:26:35 437.490
CUTE-I 03 Mar 16:29:44 16:32:40 16° 65° (ENE) 16:35:52 437.470
PHONESAT 2.4 03 Mar 16:32:49 16:35:45 24° 146° (SE) 16:38:45 2401.200-2431.200
MOZHAYETS 4 03 Mar 16:43:09 16:47:42 54° 100° (E) 16:52:16
JAS-2 03 Mar 16:45:36 16:50:34 36° 265° (W) 16:55:57 435.910
ISS 03 Mar 16:46:59 16:49:20 18° 230° (SW) 16:51:36 145.825
